Theta_e
303 304 304 305 306 306 306 306 306 307 307 307 307 307 308 308 309 309 309 309 308 307 308 308 308 309 309 310 310 307 308 308 308 307 306 306 306 307 308 309 309 309 309 307 307 310 311 311 310 308 306 309 307 307 307 309 318 324 321 314 316 319 317 317 314 312 311 309 311 307 307 311 309 303 301 301 300 299 298 296 295 295 295 294 294 293 293 293
304 304 304 305 305 306 306 306 307 307 307 307 307 307 308 308 309 309 309 309 309 308 308 307 308 308 308 309 308 307 308 308 307 306 306 306 307 308 309 309 308 307 307 306 307 310 314 316 311 309 309 308 306 308 310 307 312 323 318 311 320 326 319 313 313 312 309 308 311 307 305 307 307 305 303 305 302 299 300 296 294 295 294 293 292 292 293 293
304 304 304 305 305 306 306 307 307 307 307 307 307 308 309 309 309 309 308 308 308 308 308 308 308 307 308 308 308 308 307 308 307 306 306 306 308 309 309 308 307 306 307 306 307 309 313 315 309 310 313 308 307 308 312 309 310 318 314 310 324 328 315 309 310 311 308 308 311 308 304 304 304 303 302 306 303 301 303 297 295 295 294 294 292 292 292 292
304 304 304 304 305 306 307 307 307 307 307 307 308 309 309 308 309 309 308 308 308 308 308 309 308 307 308 307 308 308 307 310 308 305 306 306 308 309 308 307 307 308 308 306 308 309 311 311 307 311 313 310 315 312 309 310 308 311 311 314 322 316 311 310 308 309 308 307 310 309 305 304 302 301 303 305 305 305 304 299 298 296 293 294 293 291 292 291
304 304 304 305 306 307 307 307 306 306 307 308 309 310 309 309 309 309 308 308 307 307 307 309 309 308 307 307 309 308 309 313 308 305 305 306 308 309 308 307 307 307 308 307 307 308 308 308 308 315 315 311 318 315 307 308 308 309 310 314 315 309 308 311 309 308 308 306 308 308 306 304 301 301 304 305 307 310 307 301 299 295 293 293 292 291 291 291
304 304 304 305 306 307 307 307 307 307 308 308 310 310 309 309 309 309 308 307 307 307 307 309 309 309 308 307 308 308 311 311 306 305 305 306 308 308 308 307 307 306 307 308 307 307 308 309 311 317 321 315 312 312 310 309 308 310 311 310 309 308 307 309 309 308 309 308 309 309 305 303 302 302 303 304 307 307 303 300 296 293 292 292 291 291 291 291
304 304 305 306 307 307 307 307 307 307 308 309 310 309 309 309 309 308 308 308 307 307 308 309 309 309 310 308 306 307 309 307 304 305 304 306 308 307 307 307 306 306 307 307 307 309 312 315 313 314 320 317 309 310 313 312 313 314 312 308 306 306 306 307 308 309 311 310 309 308 304 304 306 303 300 302 303 300 296 295 293 291 291 291 291 291 291 290
304 304 306 306 307 308 308 308 307 307 308 309 309 309 309 309 309 308 308 309 309 308 307 309 310 310 310 308 307 307 307 305 304 304 304 306 309 307 307 306 306 306 306 306 306 310 313 314 312 312 315 312 308 311 312 311 317 315 309 309 306 305 306 306 307 309 310 308 305 304 304 305 305 301 301 302 300 296 294 293 291 291 291 291 292 292 290 289
304 305 306 307 308 308 308 308 307 307 308 308 308 308 309 308 308 308 308 309 309 309 306 308 309 309 309 307 306 307 305 304 305 305 304 306 309 308 307 306 307 306 305 305 305 307 310 311 311 310 311 310 307 310 311 311 314 312 311 313 308 305 307 306 306 307 307 305 303 304 306 305 300 300 303 301 297 295 293 293 292 292 292 292 293 291 289 289
305 306 307 308 308 308 308 308 308 308 308 308 308 309 309 308 308 308 308 308 308 309 308 306 306 306 306 305 305 305 304 305 305 305 304 306 309 309 308 308 308 307 305 305 304 305 308 309 308 308 311 311 308 308 309 310 312 312 313 313 308 306 307 306 306 305 304 305 304 305 307 303 299 300 304 300 295 294 293 293 292 292 292 291 292 291 289 289
306 307 308 308 308 308 308 308 308 308 308 308 308 309 308 308 308 308 308 308 308 308 309 308 307 306 304 304 305 305 305 305 305 304 305 306 309 309 308 307 307 308 307 305 304 304 306 306 305 307 309 308 309 309 307 307 310 310 310 309 308 308 306 305 306 304 303 304 305 305 304 301 298 301 305 300 294 294 293 293 292 292 292 291 291 291 289 289
307 308 308 308 308 308 308 308 308 308 308 309 309 308 308 308 308 308 308 308 308 309 310 310 308 307 306 304 305 305 305 305 304 304 305 306 308 310 308 307 307 308 308 306 304 304 304 304 305 307 306 308 311 309 307 306 308 310 308 309 311 310 306 303 303 305 303 303 305 304 303 302 303 304 303 297 294 293 292 292 291 291 291 291 291 291 290 289
308 308 308 307 307 308 308 308 308 309 309 309 309 308 308 308 308 309 308 308 309 311 310 309 307 306 309 308 305 304 305 304 304 304 305 306 307 308 307 306 307 308 307 306 305 304 304 304 304 304 305 311 311 305 307 308 307 307 306 310 313 309 308 303 301 305 303 303 305 303 301 303 307 307 300 295 294 293 292 291 291 291 290 290 291 291 290 288
307 307 307 307 308 308 308 309 309 309 308 309 309 309 308 308 309 308 308 308 310 311 308 308 307 306 309 308 305 305 305 304 304 305 305 306 307 307 307 307 308 306 306 306 304 303 304 303 304 305 306 308 306 305 311 311 307 308 307 311 309 304 310 307 302 306 303 302 304 301 301 302 304 306 300 295 294 293 291 291 290 290 290 290 291 290 288 287
307 307 307 307 308 308 308 308 308 308 308 308 308 309 308 308 308 307 307 308 309 309 307 307 307 307 309 307 304 305 305 304 304 304 304 306 306 307 307 308 307 304 305 305 304 303 303 303 304 307 308 306 306 311 316 314 311 309 306 309 306 302 308 307 302 304 300 300 302 301 303 303 302 303 299 295 293 292 291 290 290 290 290 290 289 288 287 286
307 307 307 307 307 307 307 307 307 307 307 307 307 308 308 308 309 308 307 307 308 307 306 307 305 307 310 306 304 305 304 304 304 304 305 306 305 306 307 307 306 305 304 303 303 303 302 304 303 303 307 306 306 314 321 321 316 310 302 302 305 303 304 305 304 302 298 299 302 302 301 302 301 298 296 295 293 291 290 290 290 290 290 289 288 286 286 285
307 307 307 307 307 307 308 307 307 307 307 307 306 306 307 308 309 309 308 309 309 306 306 306 304 306 308 305 304 305 303 303 303 303 305 306 305 306 306 307 306 303 304 304 304 303 301 304 303 301 306 305 303 311 318 313 309 309 305 302 305 305 304 306 306 302 300 300 301 300 299 300 298 294 293 293 292 290 290 290 289 289 289 288 287 286 286 286
307 307 307 307 307 307 307 307 308 308 308 308 306 306 306 306 307 308 308 308 309 307 307 306 306 309 309 305 304 304 303 303 303 303 304 306 306 306 306 305 305 305 311 309 304 304 303 305 305 302 304 304 304 308 308 303 302 305 304 302 302 304 305 306 305 303 300 299 298 299 299 298 294 291 291 291 290 290 289 289 289 289 289 288 287 286 286 286
307 307 307 307 308 308 308 307 308 308 308 308 308 308 307 307 307 307 305 305 308 309 308 306 306 308 307 304 303 303 303 303 303 302 303 305 305 306 305 303 304 309 317 314 305 305 305 307 308 305 304 305 305 306 305 302 302 302 301 300 301 303 304 304 305 303 300 299 299 299 298 295 292 291 290 290 290 290 289 288 288 288 288 288 288 287 287 286
307 307 307 307 308 308 308 308 308 308 309 308 309 310 312 317 317 310 307 306 306 306 306 306 305 305 305 303 303 303 304 303 302 302 303 304 305 305 304 305 308 308 312 312 306 303 305 309 309 306 306 304 304 305 304 300 300 300 300 302 303 303 301 301 302 302 301 301 300 299 296 292 292 291 291 290 290 289 288 287 287 286 287 287 288 288 287 286
308 307 307 307 307 308 308 308 309 308 309 309 310 312 316 321 317 309 308 307 304 303 304 304 303 303 304 303 303 303 303 303 302 301 302 303 305 305 305 309 313 307 306 309 307 304 306 308 306 305 304 302 304 304 301 299 300 300 300 302 303 302 299 298 299 299 300 300 299 300 296 292 292 291 290 290 289 288 287 286 286 286 286 286 287 287 286 286
308 307 308 308 308 309 308 308 309 308 310 309 309 312 312 312 310 307 310 310 305 303 304 303 302 303 303 303 304 303 302 303 303 301 302 303 305 307 308 310 313 308 308 311 311 310 310 306 303 304 301 300 303 305 304 302 301 301 301 301 302 301 299 299 301 301 299 298 298 300 297 292 291 290 289 289 287 287 287 286 286 286 286 286 286 286 285 285
308 308 308 308 309 310 309 309 308 307 309 309 308 309 308 308 309 308 309 310 307 304 305 306 305 304 305 304 303 304 303 302 303 302 301 303 305 308 311 309 310 311 310 310 309 307 307 304 303 303 300 298 300 305 307 304 301 302 301 300 302 301 298 299 300 299 298 298 298 299 296 291 290 290 289 288 287 287 287 287 287 286 286 286 286 286 285 284
308 308 308 308 309 310 310 309 309 309 307 309 310 309 308 309 309 309 309 310 309 305 304 303 303 304 305 304 303 304 304 301 303 302 300 302 305 306 309 306 308 312 309 307 309 307 306 304 302 304 304 301 300 302 303 301 301 301 301 301 301 300 299 298 298 296 296 298 298 296 295 293 291 290 289 288 288 286 286 286 286 286 286 286 286 286 285 284
308 308 308 309 308 310 311 309 310 310 307 308 309 308 308 307 307 309 312 313 309 305 305 303 303 304 303 303 303 302 304 302 301 302 300 301 303 305 307 304 304 310 309 307 308 308 306 303 300 303 306 304 302 302 299 299 300 299 301 302 300 299 300 298 297 296 296 298 298 296 298 297 293 291 290 289 288 286 286 286 286 286 286 285 285 285 284 284
308 308 308 309 308 309 311 310 311 312 310 307 307 308 308 307 307 307 314 323 314 304 306 306 304 305 304 303 301 301 306 306 301 301 301 300 300 303 306 304 304 307 307 306 306 305 304 304 303 303 305 307 304 301 298 298 300 299 301 303 300 299 299 298 296 296 297 298 297 296 297 297 294 291 291 289 288 287 286 286 285 285 285 285 284 284 283 283
308 308 308 308 308 308 309 310 310 312 313 309 306 308 307 307 308 306 315 328 318 304 305 309 305 305 306 303 300 303 307 305 302 301 301 300 300 302 304 303 306 307 304 305 308 306 303 306 308 306 305 306 303 300 299 297 298 301 302 300 298 298 298 297 296 295 297 297 297 298 295 295 295 293 292 290 288 287 286 285 285 285 284 284 284 284 283 282
306 307 307 308 307 307 308 309 308 308 309 308 306 306 307 309 307 311 321 320 310 305 306 307 305 304 306 302 301 306 306 303 304 302 300 299 299 303 304 300 302 306 304 304 306 305 303 304 306 305 304 304 301 299 299 297 297 301 301 298 297 298 297 297 296 295 296 295 297 299 296 295 296 294 291 290 289 288 287 285 285 285 284 284 284 284 283 282
305 305 306 306 306 307 308 309 309 308 306 306 306 306 308 308 307 319 328 313 305 307 305 305 305 305 307 307 307 307 304 303 303 302 300 299 299 301 302 298 299 305 303 302 302 301 301 302 302 302 302 302 301 300 299 298 299 300 300 298 297 297 297 296 295 296 295 294 297 298 295 296 297 294 291 291 290 288 286 285 285 284 284 284 283 283 282 282
304 305 305 306 307 308 308 308 308 308 306 305 307 307 308 311 319 327 321 308 305 306 305 305 305 305 308 311 310 306 305 305 303 303 302 300 299 300 300 298 299 306 306 303 304 303 300 301 303 303 302 301 300 300 299 298 298 300 300 298 297 296 298 297 296 296 296 296 299 297 294 295 296 296 294 291 289 287 285 284 284 284 283 283 283 282 282 281
304 305 305 307 307 307 309 309 307 307 306 306 307 308 307 315 328 327 308 303 306 307 308 307 306 308 309 306 305 305 307 308 305 304 304 301 299 299 300 300 301 309 312 306 305 305 303 302 303 304 302 299 299 299 301 302 299 299 299 297 296 296 297 296 296 298 297 296 298 296 293 294 295 296 293 288 286 285 285 284 284 283 283 282 282 282 281 281
306 306 305 306 306 307 310 310 307 305 306 308 308 311 316 320 319 312 306 307 305 305 305 305 307 310 309 306 304 303 305 307 304 302 301 301 300 298 299 299 299 304 307 303 301 303 307 304 300 302 300 298 298 297 299 302 300 298 298 297 298 298 297 295 294 297 296 294 295 294 293 294 295 295 290 285 285 285 285 284 283 283 282 282 282 281 281 281
307 307 306 306 305 306 307 308 307 305 306 307 310 318 327 325 310 302 308 310 302 302 303 304 308 308 307 308 306 302 302 303 302 302 300 301 302 301 301 299 298 299 300 301 300 301 306 304 300 301 300 298 298 296 295 298 298 297 297 297 298 297 296 295 293 294 295 294 294 294 294 296 296 293 287 284 285 285 284 284 283 283 282 281 281 281 281 281
308 307 307 307 306 305 305 305 305 306 306 308 316 327 326 316 305 301 307 309 303 304 305 304 308 308 305 306 304 302 303 302 301 303 304 304 304 303 302 300 299 300 301 301 300 300 303 303 301 300 299 298 298 296 296 297 297 297 297 297 297 296 295 294 293 294 294 294 294 294 296 299 298 292 287 285 285 285 284 284 283 283 282 281 281 281 281 280
309 307 306 308 308 306 305 304 305 306 306 309 319 328 319 307 305 305 306 307 305 306 305 303 308 312 308 307 305 301 301 302 303 303 304 304 302 301 300 299 298 299 301 301 298 299 300 301 302 300 297 298 298 297 296 296 297 297 296 297 297 295 295 295 293 294 293 293 295 296 297 298 293 288 286 285 285 285 285 284 283 283 282 281 281 281 280 280
309 308 306 306 308 308 307 305 306 306 307 314 320 318 310 304 303 305 305 304 304 305 306 306 309 312 309 308 309 305 300 301 303 301 302 302 300 300 300 298 296 297 300 300 298 299 299 299 300 300 299 298 297 297 297 297 297 297 297 297 295 293 294 296 295 295 295 294 295 297 297 294 291 288 285 285 285 285 285 284 283 282 282 281 281 280 280 280
309 308 305 305 306 308 307 305 306 306 306 315 319 310 304 301 300 304 305 303 301 302 307 310 306 304 304 307 310 308 303 302 302 300 300 301 300 299 300 298 296 296 297 298 298 299 299 298 298 298 300 300 297 296 298 297 296 297 298 296 294 293 294 296 295 294 294 294 294 295 295 293 294 292 286 285 286 285 285 284 283 282 281 281 280 280 280 280
308 308 305 304 305 306 307 306 304 306 308 314 317 308 302 302 301 303 304 302 301 304 309 309 303 300 301 305 308 306 303 304 304 301 299 299 299 299 299 298 296 296 297 296 297 299 297 298 297 295 297 299 297 296 297 297 295 296 296 294 294 295 295 295 293 292 293 294 293 293 293 293 295 293 287 285 285 285 285 284 282 281 281 280 280 280 280 280
308 311 309 304 304 305 306 305 302 307 312 315 315 309 303 303 303 304 304 300 301 307 309 304 301 302 302 301 304 305 303 302 302 300 299 298 299 299 297 296 296 297 297 296 298 299 297 297 298 295 295 297 297 296 295 295 295 296 295 294 294 294 294 293 292 293 293 293 293 293 292 292 294 291 286 284 285 285 284 283 281 281 281 280 280 280 280 280
307 313 309 302 304 305 304 303 303 309 315 311 309 307 303 302 304 303 303 302 301 303 304 302 301 304 304 300 301 303 302 302 301 300 300 298 298 299 297 296 298 298 297 296 296 296 296 298 299 297 295 295 296 296 294 293 294 294 295 295 295 294 293 292 292 294 293 292 292 292 291 291 291 287 285 285 286 284 283 282 281 281 281 280 280 280 280 280
309 317 310 302 304 306 307 307 306 308 312 308 307 307 303 302 302 303 302 302 302 301 301 303 303 304 304 300 300 301 301 303 302 300 300 298 297 297 296 296 299 299 297 297 295 295 296 297 296 296 295 294 295 294 294 294 293 293 293 293 293 293 292 291 291 292 292 291 291 290 290 291 289 285 285 286 286 284 282 281 281 281 281 280 280 280 280 280
314 320 309 302 304 304 307 311 306 306 312 309 305 305 305 304 303 302 302 301 302 303 302 302 303 304 303 300 301 302 302 302 302 299 299 298 298 297 296 296 298 297 296 297 295 294 295 295 295 296 295 294 295 294 294 295 293 292 292 291 292 292 291 290 290 290 290 290 289 290 290 290 288 285 286 286 285 284 282 282 281 281 281 280 280 280 280 280
316 312 303 302 304 304 308 311 307 306 308 303 301 302 303 306 304 302 303 302 302 303 303 302 301 301 301 300 301 303 301 299 299 298 299 300 300 298 298 299 298 295 295 296 295 294 295 296 295 295 294 294 295 294 293 295 293 291 292 292 291 291 290 289 289 289 289 289 289 288 288 288 287 287 286 286 285 283 282 282 281 281 280 280 280 280 280 280
312 305 304 304 301 306 316 315 310 307 304 301 302 303 301 302 304 304 302 302 302 303 304 303 300 299 300 301 302 302 300 298 298 296 297 300 299 298 300 301 298 294 294 294 294 293 295 297 296 295 295 294 294 293 292 293 292 290 291 291 290 290 289 288 288 288 288 288 288 286 286 287 287 287 286 285 284 283 282 282 281 281 280 280 280 280 280 279
309 306 311 308 300 305 313 309 309 310 307 305 305 303 302 301 302 303 302 301 301 302 303 302 299 300 301 300 302 303 300 297 297 296 296 298 299 298 300 301 297 296 297 296 295 293 294 295 295 295 295 294 294 293 292 292 291 290 291 290 289 289 288 287 287 286 287 287 286 286 286 286 286 286 285 284 283 282 282 281 281 280 280 280 280 280 280 279
313 313 316 313 303 303 304 302 309 312 309 311 307 301 303 303 300 301 302 301 301 300 302 302 299 300 301 301 304 306 302 298 296 297 298 300 301 299 298 300 299 297 299 299 296 295 294 294 295 295 295 295 293 292 291 291 290 290 290 289 288 288 287 286 286 285 286 286 285 286 286 286 285 285 284 284 283 282 281 281 280 280 280 280 279 279 279 279
320 314 309 308 306 309 310 307 311 313 308 311 307 299 302 304 300 301 301 299 300 301 303 303 301 301 300 300 303 304 302 298 296 296 297 298 300 299 296 297 297 297 297 295 293 294 294 294 295 295 294 294 292 290 289 290 289 289 289 288 287 285 285 285 285 285 285 285 286 286 286 285 285 284 284 283 282 281 281 280 280 280 280 280 279 279 278 278
314 309 302 303 305 311 312 306 308 310 309 310 307 301 303 305 302 302 301 299 301 301 301 302 301 301 302 300 299 300 301 299 297 298 298 297 297 299 299 296 294 295 296 294 293 294 293 294 295 293 291 291 290 289 289 288 288 288 288 286 285 284 284 285 285 285 285 285 286 286 285 284 284 283 283 282 281 281 280 280 280 280 279 279 279 278 277 276
305 306 301 300 304 307 305 303 305 309 310 311 309 304 305 306 303 301 299 301 303 300 299 300 298 300 304 302 299 300 300 298 297 298 299 298 297 298 300 299 295 295 295 294 294 292 291 296 297 293 290 289 289 289 289 288 289 288 286 285 284 284 285 285 285 285 285 286 285 285 284 283 283 283 282 282 281 281 280 281 280 279 279 279 278 276 276 276
307 309 305 305 308 305 304 306 310 311 310 310 310 304 304 307 305 301 299 300 301 300 299 299 298 300 304 302 300 301 299 296 295 294 295 297 298 298 299 298 295 295 295 294 292 289 290 295 295 291 290 290 290 290 290 288 288 287 286 285 284 285 285 285 286 286 285 285 284 284 284 283 283 283 282 281 281 280 280 280 279 278 278 277 276 276 275 275
303 303 303 310 310 304 306 309 310 315 313 308 308 305 304 306 305 303 301 299 301 301 299 298 299 300 301 300 300 301 298 296 297 296 295 296 298 298 297 296 293 293 295 294 291 291 292 292 291 291 291 291 291 290 288 287 287 288 288 286 284 285 286 286 286 286 285 284 284 283 283 283 282 282 281 281 280 280 279 279 278 278 277 276 275 275 274 274
302 299 300 310 309 302 305 308 309 314 308 302 303 304 304 306 303 302 302 301 300 300 298 298 300 300 300 300 298 297 296 295 296 296 295 295 295 295 295 294 292 291 293 292 290 290 290 289 291 291 291 291 291 289 288 288 289 290 289 286 285 286 286 286 285 285 284 284 283 283 283 282 281 281 280 280 279 279 279 278 277 277 276 275 274 273 274 273
Wind_Speed
4 5 5 5 5 6 7 7 7 8 8 6 6 5 5 7 8 11 11 11 11 10 6 1 2 4 4 3 3 4 4 10 25 29 21 17 22 23 20 19 19 19 17 15 14 9 6 7 9 12 6 2 3 2 1 2 2 4 3 2 1 3 4 5 5 5 3 2 5 2 2 6 2 1 3 4 8 6 6 7 5 8 8 8 11 14 15 17
4 4 4 4 4 5 6 6 7 7 7 5 6 6 6 8 9 11 11 11 11 12 10 4 2 5 5 5 5 5 3 7 20 24 21 22 24 21 17 18 19 18 17 15 12 8 4 4 7 9 6 2 2 2 2 2 2 4 3 1 3 5 5 5 6 6 3 3 5 1 3 5 5 5 5 2 1 3 7 4 4 8 7 8 11 16 18 20
3 3 3 4 5 5 6 6 7 6 6 6 7 7 7 9 10 11 10 9 9 10 12 8 2 3 3 5 6 4 3 5 14 16 23 26 22 19 17 17 18 18 16 11 8 5 2 1 2 4 4 2 2 2 2 2 1 2 3 1 5 6 4 5 5 6 5 4 4 3 3 4 4 6 4 4 5 4 5 5 5 6 6 6 8 14 18 19
2 3 4 5 5 5 6 6 6 5 6 7 8 8 8 10 10 10 10 10 11 11 11 10 8 5 4 6 6 3 2 5 7 13 24 25 21 18 15 15 18 19 14 6 4 4 4 2 1 4 4 1 4 2 1 2 1 1 3 3 6 3 2 6 6 6 4 4 5 3 2 2 3 4 4 7 6 4 6 8 8 11 11 9 7 11 15 17
3 4 5 5 5 6 6 6 6 6 7 7 7 8 8 10 10 9 10 11 13 12 9 7 9 11 13 8 1 4 1 5 6 17 25 22 20 16 12 13 16 19 14 3 4 6 6 5 5 6 4 2 5 4 1 2 1 1 1 4 5 4 2 6 5 5 3 3 4 4 2 3 3 2 4 8 6 5 6 7 9 12 12 11 10 10 13 15
3 4 5 5 5 6 6 5 5 6 7 7 7 7 9 9 9 9 10 12 15 15 9 4 6 7 14 18 12 8 7 3 9 20 24 21 18 14 10 11 13 17 15 9 6 7 6 7 6 4 4 3 3 1 2 4 2 1 4 3 4 4 3 3 3 4 5 6 4 4 3 3 4 1 3 7 6 4 2 7 11 12 13 14 14 11 10 10
4 5 5 5 5 5 5 5 5 6 6 6 6 7 8 8 8 8 9 11 15 18 14 5 5 6 3 9 15 16 9 1 11 21 24 20 15 12 8 8 12 15 18 16 10 6 6 8 6 3 4 3 1 1 3 4 3 2 2 3 3 4 3 2 1 3 5 6 5 4 3 4 4 2 2 4 4 0 4 10 13 13 16 17 13 10 9 10
4 5 5 5 5 5 5 5 5 5 5 5 6 7 7 7 7 8 9 10 12 17 17 9 5 5 4 2 6 11 6 4 15 24 25 17 11 12 8 7 13 16 20 19 11 3 4 6 3 2 3 2 1 1 2 3 4 3 1 4 2 1 4 4 2 1 4 4 2 5 3 3 4 3 3 4 3 5 7 11 12 13 14 13 10 9 9 10
5 5 5 6 5 5 5 5 5 5 4 4 5 6 6 7 7 7 7 8 9 12 16 14 8 5 4 4 6 6 5 8 14 23 25 16 9 11 10 10 15 16 16 16 13 6 4 2 2 3 3 2 2 1 3 3 2 1 2 3 1 3 6 4 3 3 3 2 2 4 3 3 1 1 1 4 7 7 8 10 10 11 11 10 9 8 9 10
5 6 6 6 6 6 5 5 4 4 4 4 5 5 6 7 6 6 6 6 7 8 11 15 15 14 11 6 7 7 7 11 14 22 25 15 7 8 11 13 15 15 13 13 14 9 3 1 3 2 4 2 1 1 3 3 1 1 2 2 2 5 5 2 4 5 3 3 4 5 4 4 3 1 2 3 7 8 10 10 8 11 10 9 8 7 11 11
6 6 7 7 7 6 5 4 4 4 4 4 5 5 5 7 7 6 5 5 5 5 6 8 10 17 19 12 9 7 9 13 16 23 23 13 6 7 10 13 14 13 11 11 13 11 6 1 2 3 2 1 2 2 3 2 1 3 3 2 4 7 4 5 7 6 5 2 4 4 1 3 5 2 4 4 8 8 11 9 7 10 8 8 8 7 10 11
6 7 7 7 7 6 5 4 4 5 5 5 5 5 6 7 8 6 5 4 3 4 4 3 4 5 9 12 8 5 11 14 18 24 21 11 7 7 10 13 13 11 10 9 11 13 10 5 9 7 2 0 1 2 2 3 3 3 5 2 7 10 6 5 6 5 5 3 2 3 1 3 2 4 5 4 8 8 10 9 7 9 7 7 7 6 7 11
7 7 7 7 7 7 7 6 6 6 6 5 4 4 6 6 7 5 3 3 3 4 3 3 6 5 4 5 5 10 15 16 21 25 20 11 8 6 8 12 10 11 10 7 8 12 11 8 13 9 1 3 1 2 1 5 5 3 6 4 4 9 6 3 5 6 4 1 2 2 4 4 5 7 5 5 10 10 10 8 7 7 6 6 6 6 6 12
7 7 7 9 10 9 9 8 8 8 7 5 4 3 4 5 7 7 5 3 3 3 3 2 4 7 8 3 2 14 19 19 27 31 23 15 13 9 9 10 10 12 11 9 9 11 9 9 14 8 2 4 1 2 4 6 6 3 5 3 3 4 6 6 6 7 5 1 4 5 5 4 5 8 5 5 10 12 11 8 7 6 6 6 6 7 7 11
7 7 9 11 11 11 10 10 10 10 9 7 4 2 2 4 6 8 9 7 5 4 3 4 3 3 6 2 3 16 22 25 30 32 25 18 18 14 10 9 8 11 15 14 11 10 11 11 12 6 3 4 3 5 5 4 5 4 4 4 3 1 5 10 6 3 3 3 6 6 5 5 5 7 5 2 7 11 11 8 8 7 7 6 6 8 7 8
7 8 9 10 10 10 8 8 9 11 12 12 10 5 3 5 6 8 11 11 11 10 5 5 5 4 6 1 7 16 20 23 27 29 25 17 17 15 12 9 7 7 12 15 14 13 15 12 7 3 3 5 6 5 4 4 5 4 3 3 5 3 5 8 4 1 2 4 6 6 3 6 5 6 7 3 9 10 12 9 8 8 7 7 6 7 6 6
7 7 7 8 8 8 6 7 9 11 13 16 19 18 13 9 5 4 2 2 5 10 11 12 8 5 6 6 7 10 14 18 24 29 27 17 14 18 16 10 6 5 4 12 19 15 12 9 3 2 4 5 3 2 5 5 5 4 3 2 4 3 4 5 5 4 6 5 5 3 2 6 7 10 10 4 11 12 12 10 8 8 6 6 6 6 6 6
5 4 5 7 7 7 6 7 9 10 10 11 17 24 24 21 17 13 10 4 3 4 9 16 11 5 4 9 6 10 15 17 22 29 29 19 11 17 19 9 6 8 5 7 14 11 6 5 3 2 4 5 4 5 5 1 3 4 4 3 4 4 4 5 7 4 6 4 3 2 3 5 9 11 10 5 11 13 12 10 8 8 6 6 5 5 5 5
4 3 5 7 8 8 6 6 6 5 4 4 7 10 12 15 20 26 27 18 7 4 3 8 7 4 2 6 8 14 13 12 22 29 32 25 11 12 18 12 6 7 6 4 6 6 4 4 5 4 4 5 4 2 4 4 5 5 5 3 5 6 4 6 8 4 5 5 2 3 5 6 9 9 9 7 10 14 11 10 8 6 6 5 5 4 5 5
5 4 5 8 9 8 5 3 2 5 5 3 4 2 1 3 8 12 16 14 8 7 6 1 1 3 2 4 10 17 10 6 17 25 33 28 13 9 14 11 7 7 5 2 4 4 4 5 5 2 4 6 6 4 4 2 3 3 3 3 5 6 6 6 8 6 4 4 2 4 6 7 8 8 7 6 11 13 11 10 8 6 5 4 5 4 4 5
7 5 5 7 8 7 6 5 6 2 2 4 4 1 2 2 5 1 2 6 5 6 7 2 2 3 2 3 10 15 5 4 13 23 33 27 10 6 8 7 7 7 5 3 3 4 5 6 3 5 6 5 3 2 2 2 1 1 3 4 5 5 7 8 8 6 5 4 4 6 8 7 6 6 5 6 10 10 8 9 7 6 5 3 4 4 4 3
9 7 6 6 7 8 7 7 9 8 5 3 7 7 4 5 8 7 4 5 4 6 6 4 6 4 2 3 12 12 4 7 14 21 32 25 10 6 4 5 7 3 6 4 2 6 6 3 5 7 3 2 3 4 4 4 1 1 2 3 5 4 7 9 6 3 3 3 5 6 8 4 4 4 5 6 8 7 6 8 7 5 5 3 3 4 3 2
9 8 7 5 5 6 7 8 6 6 7 7 11 11 8 9 9 7 5 6 2 5 4 5 7 5 5 6 14 13 8 7 6 13 26 19 7 4 3 6 6 2 6 6 4 4 3 3 3 3 3 3 4 6 5 5 3 2 3 3 5 4 3 5 6 6 3 3 3 6 7 2 1 3 5 5 4 6 5 6 6 5 5 4 2 3 4 5
8 7 7 6 4 3 5 7 5 6 8 9 13 12 11 9 7 5 4 4 2 2 2 2 3 4 4 4 12 8 5 4 1 9 21 14 4 2 4 3 4 5 5 3 5 6 0 5 0 4 6 6 5 6 6 6 5 4 4 4 6 6 4 6 8 11 8 3 2 5 5 1 3 2 3 2 2 3 4 5 5 4 4 4 3 3 5 7
6 6 6 5 5 2 1 4 6 8 8 9 12 11 10 7 3 3 4 4 3 3 3 2 2 5 4 5 13 4 3 4 3 7 15 12 5 2 3 1 3 6 7 2 4 3 2 4 1 3 6 7 6 5 4 3 5 6 5 6 7 7 7 8 10 11 8 5 1 4 2 3 4 5 4 3 3 2 2 4 5 4 4 5 5 4 5 7
6 5 5 5 5 3 1 1 4 5 5 6 7 7 5 3 1 1 3 5 4 3 5 4 3 9 8 8 13 3 4 4 2 10 19 16 6 2 3 4 2 5 5 2 2 0 2 4 3 4 4 6 6 5 3 1 5 7 5 5 5 6 7 10 12 8 4 4 4 1 2 4 3 5 6 5 4 4 2 3 4 3 4 4 4 4 5 6
7 6 5 4 4 4 1 2 2 3 3 3 5 5 3 3 2 1 2 5 4 2 4 5 3 8 8 9 12 3 3 7 4 13 21 19 10 1 5 6 3 3 2 2 4 2 3 6 6 4 5 6 5 5 4 0 3 7 4 1 6 9 9 11 10 6 3 4 6 2 3 3 3 5 7 6 5 4 3 3 3 2 4 4 4 3 4 6
7 7 5 5 4 3 0 2 2 3 4 4 5 3 3 4 3 2 5 5 3 1 1 3 3 6 6 9 12 6 2 6 3 8 17 20 13 3 5 6 2 5 3 4 4 4 2 3 6 4 5 4 2 6 6 1 1 8 6 4 6 8 10 10 8 6 3 2 5 5 1 2 5 2 5 6 4 4 3 2 2 3 3 4 4 3 4 5
8 7 6 5 3 1 2 3 3 5 6 5 5 4 5 4 2 3 6 3 2 2 1 2 3 5 7 8 9 6 3 5 3 7 14 17 16 7 4 1 1 3 3 4 3 5 2 2 3 1 3 1 4 9 6 2 4 8 7 6 6 6 7 6 4 5 3 2 5 7 1 1 4 2 5 5 4 3 2 2 1 3 3 4 5 4 4 6
9 8 7 4 1 1 3 4 5 7 7 6 5 6 6 4 4 6 5 1 1 2 1 3 3 4 8 8 7 6 5 4 3 6 6 6 14 12 3 0 4 3 2 3 2 5 6 3 2 2 0 2 4 7 5 4 5 6 7 6 7 6 3 1 1 2 3 1 5 7 1 1 3 2 4 3 2 4 3 1 1 2 3 3 4 4 5 6
12 12 11 7 5 3 2 4 7 8 7 7 7 6 4 3 5 7 3 1 1 3 3 4 3 4 7 6 5 6 4 5 5 6 6 4 9 10 5 5 5 3 4 5 4 7 7 2 1 2 1 1 2 5 4 2 1 4 4 4 7 7 3 3 3 4 4 5 6 5 2 1 4 4 2 3 4 6 4 2 2 3 4 5 5 4 5 5
13 15 14 12 10 8 6 6 7 7 7 8 6 4 4 3 4 3 1 3 2 3 3 2 3 5 5 3 4 6 3 4 4 4 3 4 6 6 6 6 4 4 6 4 5 7 5 1 3 5 2 4 5 6 6 4 5 6 5 5 6 6 5 5 6 4 3 6 7 4 4 3 7 4 5 7 5 5 4 3 3 3 4 5 6 5 5 5
14 15 15 14 12 11 10 7 6 7 7 8 4 5 6 5 3 1 3 3 2 2 1 1 3 3 4 4 5 5 2 2 4 4 2 2 5 5 5 6 5 4 2 3 4 6 5 4 4 5 3 3 6 6 8 6 6 7 4 2 3 3 5 8 6 4 6 7 6 4 5 4 8 3 7 8 6 5 5 4 2 1 3 6 6 6 6 7
14 16 16 15 13 11 9 6 5 6 7 5 4 6 8 5 1 1 2 2 1 3 2 0 4 4 3 3 3 4 3 2 3 5 4 4 5 4 4 6 7 3 1 2 3 2 4 5 3 2 2 3 4 2 4 5 5 5 1 1 1 2 3 7 5 4 9 10 7 5 3 5 7 2 8 8 6 6 4 3 2 2 3 5 6 6 7 8
11 17 19 18 15 11 7 5 4 6 5 5 7 7 6 2 3 1 1 3 2 3 2 1 3 4 3 3 3 2 1 2 2 4 4 4 3 3 3 4 5 3 1 2 2 0 1 5 5 2 2 1 3 4 2 1 4 3 2 2 2 2 2 4 5 5 7 10 7 3 3 4 2 2 8 8 6 5 3 2 2 3 3 5 6 7 9 11
5 14 20 20 17 11 5 4 4 5 4 7 8 6 2 3 1 2 2 1 1 1 3 4 4 4 4 4 4 4 2 2 2 4 3 2 1 3 2 2 2 3 2 1 2 1 1 6 7 6 4 3 1 6 3 2 3 3 2 2 4 4 3 2 6 3 3 8 5 1 4 4 1 2 7 5 2 5 4 3 5 7 8 9 10 11 12 13
2 7 14 20 19 11 6 4 4 5 4 7 8 3 2 2 1 2 1 1 0 0 3 3 2 3 3 3 4 6 5 3 3 4 2 1 1 2 2 3 2 2 1 1 1 0 1 6 7 3 4 4 2 3 2 1 2 2 1 4 4 1 2 1 3 4 4 7 5 3 8 9 6 3 4 2 10 13 10 9 10 11 12 12 11 11 12 13
2 3 8 18 20 11 5 4 5 6 7 8 7 3 1 1 1 1 1 1 1 2 5 2 1 1 0 1 3 5 5 4 3 4 2 2 1 1 1 3 1 2 2 0 0 0 1 5 6 1 2 8 4 3 3 4 3 1 2 3 3 4 4 2 1 4 5 7 8 10 11 7 5 3 1 5 11 11 10 10 9 11 12 10 11 12 12 13
3 2 3 16 19 10 6 4 5 7 8 6 4 2 1 1 0 2 2 1 1 3 4 1 1 2 1 1 2 4 3 2 2 3 2 2 2 2 3 1 2 2 3 1 1 1 0 1 4 2 2 6 5 4 4 5 4 3 4 4 3 2 4 2 1 2 3 6 9 11 11 5 3 2 1 5 9 8 10 10 9 11 11 10 11 12 12 13
3 2 2 16 16 5 9 13 10 8 7 4 3 2 1 1 1 2 1 1 1 2 2 2 1 2 2 1 1 2 1 1 1 2 1 1 2 1 2 1 2 3 3 2 2 1 1 1 4 6 4 4 3 3 5 5 4 4 5 5 5 3 3 4 2 2 2 3 7 9 11 6 2 1 1 5 10 11 11 12 10 11 13 13 13 13 13 14
4 3 3 18 14 3 4 14 11 5 4 4 2 2 1 1 1 2 2 0 0 0 1 3 3 1 0 1 1 2 1 2 1 1 1 1 2 1 1 2 1 3 3 4 3 1 1 1 4 6 5 4 4 4 4 3 1 2 3 3 4 3 3 6 6 1 2 1 5 9 11 7 3 1 3 7 15 14 11 11 11 12 15 15 14 14 15 15
5 3 5 15 9 5 8 9 4 3 4 3 2 2 1 2 2 1 2 1 1 1 2 3 2 1 2 1 2 1 1 2 0 1 0 1 1 2 2 1 2 1 1 2 3 2 1 1 2 6 5 6 9 5 2 0 1 2 1 0 1 0 2 3 7 7 4 4 5 7 9 7 1 3 3 12 16 12 10 12 14 15 15 15 16 17 16 16
4 3 4 12 4 5 11 7 2 5 4 0 1 1 1 2 2 0 1 2 1 1 3 2 0 0 1 1 1 0 1 1 1 0 1 1 2 4 3 1 1 2 2 1 3 2 0 1 3 7 5 5 6 3 2 1 3 5 2 2 3 2 0 4 6 5 5 6 5 5 8 7 1 1 8 15 15 11 11 13 16 16 14 16 18 17 16 16
2 3 4 14 6 3 5 5 2 3 2 1 3 2 2 1 2 2 1 2 1 1 2 1 1 0 0 1 1 0 1 1 0 1 1 1 2 2 0 1 1 1 1 0 1 2 2 1 3 6 8 8 7 6 4 4 5 5 4 3 4 5 5 2 2 2 2 5 7 7 9 8 6 9 14 15 12 12 13 14 15 16 16 16 16 15 16 15
3 1 3 14 17 9 4 4 6 5 3 3 5 2 2 2 1 1 1 1 1 2 1 1 1 0 0 1 2 1 2 2 1 2 2 1 3 2 2 1 1 0 1 2 1 1 1 1 1 2 5 8 9 9 10 10 8 6 7 8 6 4 5 4 3 3 3 7 8 7 10 12 13 17 19 15 12 13 15 15 14 15 16 17 16 15 15 14
3 3 2 8 13 11 3 1 5 6 5 5 4 2 2 2 1 1 1 1 1 1 2 2 1 1 2 3 3 2 2 2 1 1 1 2 4 3 1 1 1 1 1 2 3 3 2 1 2 4 5 6 8 11 12 11 10 10 12 13 8 4 4 5 4 3 6 9 9 8 13 19 20 20 19 15 14 15 16 16 16 16 16 18 18 17 15 13
2 2 2 1 3 5 4 4 5 4 3 4 3 1 2 2 2 1 1 1 1 1 2 2 2 2 2 3 3 2 3 3 2 1 1 2 3 4 3 1 1 2 1 3 2 3 3 2 3 5 7 8 10 14 15 11 10 12 13 10 6 4 5 7 5 7 9 8 10 15 20 22 20 19 17 15 16 17 18 18 18 17 17 19 19 18 18 17
2 3 1 1 2 2 3 3 3 5 4 4 3 2 2 2 2 1 0 1 1 1 1 1 4 3 1 1 2 1 4 5 3 2 0 1 3 4 5 1 0 3 2 2 2 3 4 3 4 2 8 11 10 13 13 8 9 10 8 5 5 6 7 6 7 10 9 8 13 21 24 22 19 17 16 16 18 18 19 19 18 18 19 20 19 18 20 20
3 4 1 2 3 3 1 2 4 6 6 4 3 2 2 3 3 1 1 2 3 3 2 2 4 5 3 1 2 1 2 2 3 4 1 1 3 2 3 2 1 3 3 3 3 2 3 3 3 2 10 12 9 10 9 7 11 10 4 1 4 7 8 7 8 10 11 13 17 22 23 19 15 13 16 18 18 17 16 17 18 21 22 20 18 20 21 20
2 4 2 3 4 2 2 3 3 5 4 3 3 2 2 4 3 2 0 2 1 2 3 2 3 5 2 2 3 1 4 4 4 5 3 0 3 1 1 2 2 3 4 3 1 1 1 3 2 2 6 10 8 7 6 10 14 11 4 2 6 10 11 10 9 11 14 16 18 20 18 13 9 11 17 18 15 17 18 19 21 22 21 19 19 21 21 20
4 5 6 7 4 3 3 2 3 4 3 3 2 2 1 2 4 3 2 1 2 1 1 0 2 2 1 1 2 3 5 4 5 6 5 3 3 3 2 2 2 2 4 2 1 3 3 3 3 4 5 9 8 9 14 17 13 7 5 5 7 10 11 11 11 12 15 19 21 17 12 10 10 13 18 18 19 23 23 22 23 20 17 18 20 21 21 21
7 5 5 7 4 3 2 2 3 4 2 1 1 2 0 1 3 3 3 0 1 1 2 2 3 2 1 1 2 4 5 4 5 6 4 3 2 2 2 2 3 1 1 1 1 1 2 2 4 3 3 9 10 11 14 13 9 5 2 2 5 10 11 12 13 15 17 16 14 11 10 13 16 17 20 23 25 24 22 21 22 19 17 18 20 21 21 19
Wind_Direction
54 47 42 37 33 30 25 13 7 3 7 16 37 59 54 34 24 20 23 37 47 44 40 354 214 197 219 232 270 337 349 19 29 33 33 12 358 359 359 355 352 351 352 351 358 8 18 24 4 5 27 96 19 324 343 27 63 54 82 107 249 209 199 191 187 196 166 224 249 264 127 132 170 211 148 51 47 75 64 52 54 55 64 87 105 105 97 94
51 49 45 35 23 20 13 7 6 4 12 30 60 74 58 38 27 24 30 45 52 44 40 28 266 231 238 250 271 324 310 0 24 26 16 5 2 3 3 1 356 351 351 350 359 17 28 359 345 7 34 45 339 332 356 5 66 89 124 134 230 207 206 202 183 191 178 204 223 204 125 145 178 173 148 103 114 112 87 63 66 82 78 86 97 95 92 87
53 46 36 21 11 12 13 14 13 14 33 61 79 76 56 41 30 29 35 40 37 32 36 44 27 245 266 279 279 304 287 10 26 10 360 4 5 6 8 4 360 354 348 347 356 20 65 253 317 34 52 30 321 331 9 4 14 149 135 171 242 214 222 234 193 199 210 188 184 200 157 151 185 166 156 149 165 168 141 157 134 131 138 121 106 96 91 84
44 28 22 17 13 15 19 22 24 39 64 82 85 70 55 39 34 36 38 35 28 26 31 49 72 69 4 296 274 264 281 39 21 340 352 2 3 6 11 9 9 4 352 347 24 55 90 130 102 65 73 22 331 0 36 339 340 134 129 198 230 184 218 240 201 205 211 173 162 177 145 159 201 161 155 143 144 226 212 193 171 162 158 144 131 106 96 87
17 18 22 21 19 21 26 32 41 64 79 86 81 62 49 39 40 43 44 43 34 27 24 53 87 77 50 31 256 211 103 52 332 334 352 357 0 4 9 15 15 10 8 41 86 81 82 77 72 47 55 43 348 18 5 305 62 101 255 220 207 148 214 243 198 194 175 132 118 134 168 178 149 125 164 155 168 234 220 197 169 154 152 144 135 117 100 89
12 17 24 25 25 26 32 42 55 73 82 80 73 54 44 42 46 48 52 54 43 32 25 72 127 108 63 58 73 95 95 95 309 338 353 353 359 2 6 15 11 13 31 71 73 69 60 40 58 45 35 50 0 15 283 306 50 218 280 280 225 184 222 248 180 193 145 118 140 168 196 136 113 286 191 174 205 247 205 154 143 140 141 132 123 115 102 93
13 16 25 27 27 30 34 46 60 72 79 72 63 48 42 45 48 48 54 59 48 36 32 61 154 173 124 62 61 66 85 152 329 349 353 350 359 4 4 12 13 24 42 50 42 57 58 35 55 90 65 51 319 258 287 307 33 85 259 303 259 197 227 254 143 182 150 155 198 170 136 139 165 226 139 197 232 71 99 121 124 129 129 121 112 110 105 101
6 13 24 24 24 30 35 45 58 71 74 67 54 43 44 48 47 47 59 67 53 38 35 51 121 155 175 168 64 59 61 324 346 358 353 347 4 14 11 21 27 35 43 40 31 54 68 41 58 126 72 45 185 250 310 328 9 63 183 281 293 208 278 307 359 225 185 203 181 129 152 210 194 158 143 209 184 116 117 114 118 121 117 113 109 110 107 100
3 13 19 18 20 26 32 40 54 69 66 57 45 43 52 50 46 46 60 68 57 44 41 54 85 125 139 133 95 66 354 330 346 354 353 349 4 15 22 33 29 33 42 38 34 50 77 78 212 171 165 199 148 302 339 24 319 220 206 275 345 322 312 338 328 282 237 242 133 155 238 296 259 165 227 197 153 135 122 114 120 119 111 112 112 112 109 98
6 16 18 18 21 24 30 37 49 57 50 50 47 53 57 52 53 47 56 70 63 50 47 62 75 78 85 95 79 65 340 343 352 350 353 352 353 6 21 25 15 20 33 32 33 40 64 172 228 153 137 139 66 350 359 37 335 291 272 264 41 336 308 356 344 329 309 244 188 207 263 325 333 339 279 205 150 140 120 119 123 115 113 114 113 110 105 99
16 23 23 21 24 23 27 34 41 47 49 57 58 59 59 62 65 57 65 84 74 54 52 66 67 64 67 69 74 61 341 349 355 351 355 354 354 3 12 9 359 8 22 29 31 31 37 102 145 101 91 39 3 352 0 9 18 344 324 270 352 356 340 14 11 353 346 295 187 181 249 343 356 353 234 194 154 146 126 125 115 110 113 111 110 103 99 100
27 27 22 22 27 31 40 50 57 62 66 66 64 67 71 73 70 66 80 89 76 52 44 41 24 29 53 56 66 36 350 355 354 355 1 2 2 3 5 359 354 6 15 28 33 32 42 71 87 77 319 330 12 342 12 23 29 353 28 33 330 0 356 3 13 342 355 347 217 148 23 331 285 261 253 164 144 138 117 117 109 107 110 105 105 100 103 95
30 26 27 41 55 66 70 71 74 70 70 68 64 80 85 76 66 80 99 92 94 58 41 52 44 36 46 61 51 18 7 3 2 5 11 17 15 8 10 9 17 26 20 40 49 41 48 62 78 89 83 84 89 296 50 19 23 356 27 58 352 2 322 331 13 334 7 20 306 17 332 296 241 266 282 160 149 129 111 112 109 108 104 104 108 106 98 81
33 39 60 78 81 85 84 83 85 79 77 69 66 98 104 80 73 89 98 102 119 71 54 67 67 58 57 102 42 13 7 7 13 13 14 18 19 19 28 36 47 48 49 69 64 47 52 61 71 87 75 67 285 345 30 5 19 0 358 31 40 13 291 316 346 340 13 353 11 15 300 271 253 286 301 177 156 129 120 116 113 108 102 106 104 90 76 74
51 77 90 89 85 84 84 89 91 87 83 75 79 136 148 98 92 89 87 97 85 52 63 57 62 83 64 96 9 6 6 12 13 11 13 17 18 12 8 27 46 61 67 67 59 48 48 57 64 57 323 355 38 42 21 347 17 25 5 339 343 15 284 311 322 40 50 294 14 27 290 272 246 280 321 150 137 120 119 116 113 110 107 103 84 81 80 79
86 104 100 87 79 77 82 93 95 91 83 74 74 88 141 117 119 102 90 96 67 44 64 39 15 81 90 357 342 360 6 8 4 8 18 21 20 10 359 25 49 75 75 53 44 41 39 50 69 62 348 7 37 52 39 13 359 8 42 311 296 325 317 317 316 67 51 315 353 23 291 286 283 318 344 92 122 114 116 113 114 113 105 95 80 86 86 75
108 114 97 73 64 70 87 101 106 101 88 80 76 77 86 90 128 155 123 126 41 35 55 32 8 93 76 356 349 352 349 354 358 8 17 18 19 17 19 36 22 15 59 32 27 25 25 38 61 48 40 33 24 57 53 20 326 326 24 338 281 295 302 313 308 313 11 349 321 3 244 275 318 343 345 96 121 112 116 117 116 109 93 91 89 87 80 71
117 110 74 54 54 70 99 121 124 117 103 92 84 81 81 76 79 77 52 41 310 342 37 20 17 96 29 354 352 329 325 343 2 9 13 15 15 18 26 35 359 2 21 18 20 20 10 19 53 46 22 18 16 56 70 297 264 280 306 311 296 288 258 282 291 305 17 345 261 359 323 308 346 353 358 67 111 109 114 113 106 99 90 94 90 89 88 76
102 74 56 53 60 79 110 141 150 156 141 114 108 94 76 65 67 61 51 53 51 37 42 354 12 108 332 325 320 327 326 347 11 11 9 8 359 9 23 29 24 32 40 13 5 17 20 20 45 39 357 345 338 101 141 221 219 238 268 258 272 289 265 261 271 283 11 340 264 36 348 353 6 5 20 54 100 102 103 97 89 87 84 85 86 96 103 86
73 54 61 60 66 79 94 119 188 226 223 201 193 188 29 34 49 42 33 44 63 85 99 296 4 98 347 307 326 346 349 359 17 13 6 1 343 357 17 14 24 47 45 347 321 0 61 59 40 347 289 290 284 218 182 240 206 231 278 248 261 281 281 274 275 287 18 357 314 74 42 25 18 11 27 61 90 90 93 92 87 89 85 84 95 100 112 100
64 56 65 62 63 65 67 62 52 88 194 219 204 140 143 136 80 101 320 39 46 67 84 81 61 67 359 323 344 355 356 352 11 8 5 2 351 5 7 5 32 32 356 293 283 347 62 67 355 278 261 259 288 202 158 17 85 305 291 276 292 286 284 289 283 300 29 7 322 79 67 34 26 20 25 65 85 86 93 96 94 98 95 97 107 106 112 104
65 65 70 66 62 56 59 60 56 74 78 103 120 100 120 130 111 143 151 87 24 20 63 51 46 40 335 26 4 1 36 12 1 0 0 1 9 24 6 30 54 11 332 355 5 0 40 46 289 286 274 173 44 54 60 19 6 309 324 305 304 297 298 294 269 286 35 349 327 79 84 38 30 39 35 57 86 97 99 104 107 103 94 85 106 119 96 50
66 72 76 70 61 53 64 68 67 80 70 93 108 101 111 110 119 140 103 95 49 359 27 32 48 20 352 28 6 9 55 34 348 345 354 358 11 37 58 40 42 4 348 19 53 45 36 321 296 342 33 78 27 17 36 15 346 305 321 304 292 307 331 303 290 304 308 263 272 92 93 83 64 62 57 55 85 105 103 104 101 95 91 69 74 120 79 32
62 69 71 61 53 56 76 71 68 74 72 100 108 109 124 115 122 131 81 86 66 8 0 10 81 35 6 7 353 5 84 53 37 343 353 6 4 17 67 44 34 22 348 21 79 81 2 276 288 57 30 53 34 1 24 9 338 308 283 250 274 300 279 262 291 308 314 293 203 100 82 183 179 152 113 116 111 103 101 93 81 69 74 47 26 74 59 32
47 52 56 49 40 36 110 61 54 76 83 99 109 120 129 115 114 117 90 72 28 335 338 357 60 18 346 337 348 359 122 44 71 351 355 13 355 344 37 15 64 18 331 351 69 65 312 284 15 39 10 43 44 1 7 359 340 320 276 223 243 289 285 276 300 315 327 322 308 80 3 273 177 183 189 182 171 136 118 88 83 64 56 42 26 41 40 28
22 26 36 31 23 12 229 89 52 83 87 90 118 141 147 149 174 122 99 67 25 318 344 357 14 1 347 342 341 351 78 2 353 13 10 10 354 143 47 344 40 15 321 317 32 353 317 338 44 68 29 34 32 358 327 4 358 317 259 208 248 289 290 292 306 313 311 294 293 53 250 259 205 203 207 195 178 160 142 77 83 67 53 44 25 31 31 16
4 358 0 354 355 357 294 182 98 92 88 112 140 145 160 179 172 143 80 44 10 314 353 334 339 5 356 344 343 48 75 313 324 24 14 6 352 112 58 7 346 344 315 39 16 304 306 346 10 41 41 32 24 346 312 11 352 285 250 45 313 304 296 295 302 284 254 293 300 278 182 241 258 212 193 182 175 181 166 75 58 50 53 41 17 22 27 10
353 337 331 325 322 340 32 143 111 99 104 132 138 131 149 151 161 143 85 64 346 341 37 308 331 7 352 350 6 70 101 317 16 9 356 11 11 19 67 30 321 279 294 65 15 295 276 344 332 351 29 26 343 307 297 174 252 271 282 323 297 287 283 285 294 283 286 7 303 290 114 268 274 184 167 182 181 194 182 107 44 25 43 35 7 359 16 8
356 335 325 316 303 347 102 108 100 111 116 124 117 127 144 129 120 73 73 102 314 349 154 320 350 346 346 2 16 42 16 4 58 327 343 18 16 23 98 18 329 257 287 67 38 303 287 238 253 77 58 341 293 299 295 181 235 279 305 312 283 268 270 279 298 304 335 78 268 280 14 282 269 174 165 207 213 200 174 121 59 22 29 20 354 343 3 359
18 5 353 343 326 71 96 81 92 119 119 114 121 136 138 99 66 60 48 106 344 331 280 17 6 340 4 15 360 7 23 7 337 334 353 19 5 17 90 299 51 94 317 18 29 302 308 276 183 120 143 243 273 298 292 210 243 313 339 330 313 296 291 352 12 357 4 326 253 265 288 64 285 231 178 199 178 142 125 55 15 5 5 1 345 343 354 345
32 30 26 34 55 64 91 85 98 123 123 120 128 127 114 42 58 88 70 298 352 338 2 13 349 9 29 37 359 353 13 341 338 12 12 1 5 12 26 10 28 53 4 357 339 326 339 0 179 283 312 39 293 293 299 254 297 7 355 341 337 327 352 25 4 23 5 303 276 266 284 283 271 268 158 132 120 124 122 64 19 357 350 349 337 329 331 323
36 36 37 45 59 68 91 115 117 122 132 138 128 91 82 28 31 90 294 328 354 338 9 339 321 4 7 28 12 337 335 340 356 44 13 2 27 26 35 28 358 4 9 353 337 339 337 265 298 320 351 39 1 331 331 339 9 1 350 10 360 338 344 342 334 343 307 286 280 293 341 295 269 268 135 140 139 127 119 97 55 10 339 326 314 306 313 313
39 38 41 46 59 71 82 107 119 123 146 153 113 54 75 78 45 251 279 336 12 332 6 307 312 343 343 11 3 327 337 347 348 24 11 23 42 28 34 28 14 22 351 323 348 345 324 297 334 349 336 31 42 10 337 328 341 339 336 12 4 357 336 318 318 311 289 282 273 304 355 303 285 283 141 146 146 131 107 93 82 333 297 301 299 294 305 306
43 41 43 46 55 66 75 90 113 134 150 135 80 48 64 80 159 220 300 284 299 344 24 351 319 341 19 37 333 322 6 338 345 29 9 19 40 11 357 4 15 44 213 332 3 355 337 314 320 8 319 355 40 5 284 282 304 309 228 169 35 42 319 298 299 299 297 299 296 317 328 265 287 293 142 143 141 137 113 121 187 236 255 280 285 282 298 308
44 39 39 40 42 51 70 87 115 148 144 91 66 61 78 120 225 159 271 267 289 342 328 328 8 24 7 336 315 345 17 302 354 52 25 24 44 354 344 339 352 19 47 357 329 271 303 272 262 283 259 117 19 313 254 296 307 284 148 93 7 305 250 262 272 262 280 294 292 297 266 239 278 112 142 145 140 130 124 178 240 281 283 292 301 311 322 329
33 34 34 31 27 30 55 92 136 158 131 84 67 57 115 187 206 149 194 287 1 307 319 349 31 43 342 315 332 352 347 290 356 34 28 46 57 345 341 287 321 21 62 78 325 345 327 277 284 321 317 155 93 317 325 32 327 323 14 329 276 253 188 231 289 285 293 296 284 244 291 294 350 141 168 172 2 3 358 344 333 331 334 333 332 334 335 335
16 36 33 24 17 21 46 78 132 145 104 77 82 91 190 184 125 160 193 32 225 197 58 35 15 19 338 316 319 329 341 346 0 16 8 11 17 354 339 296 280 34 45 170 249 244 222 285 290 326 319 267 236 318 323 38 15 23 334 288 285 295 119 126 301 312 310 290 281 299 304 306 316 295 191 268 337 343 342 346 346 343 344 338 331 329 327 327
41 68 38 17 10 13 40 71 102 104 86 67 77 119 171 68 94 194 179 134 213 53 68 79 329 27 32 290 300 310 342 357 354 10 8 339 341 111 54 320 273 65 8 225 281 317 172 296 303 45 301 294 323 27 343 336 10 63 252 304 359 339 332 18 309 298 302 292 294 301 302 302 293 293 12 336 330 329 329 342 348 341 339 328 320 322 319 318
48 78 29 1 2 16 46 84 97 67 68 77 86 127 138 76 281 228 186 140 125 79 74 168 266 22 61 167 281 302 343 4 335 356 30 5 342 103 96 336 284 17 19 129 163 297 177 273 293 306 309 310 341 19 340 323 337 356 338 348 20 308 296 313 233 270 298 295 299 302 306 307 257 241 18 332 324 322 328 342 345 332 328 322 320 321 316 314
52 87 346 347 353 25 59 64 69 49 60 107 152 139 86 124 235 283 244 140 134 101 90 186 176 16 337 329 305 290 342 19 316 342 36 27 340 9 73 80 286 324 4 64 87 333 9 201 261 293 329 351 346 327 317 312 320 355 353 341 343 324 303 310 292 142 134 291 302 304 304 307 306 165 188 315 333 343 342 342 336 325 324 324 323 320 314 311
57 86 322 344 348 233 61 51 53 48 76 89 111 106 64 142 138 334 315 325 225 156 129 148 138 103 147 355 328 252 308 338 335 21 337 347 10 340 328 152 205 312 1 31 23 1 24 204 255 298 329 338 300 269 278 278 253 350 329 320 322 304 339 337 314 287 128 258 289 295 295 302 336 142 198 320 339 348 347 338 330 326 325 325 321 315 310 308
62 93 310 344 9 108 73 52 29 43 91 71 55 106 58 92 114 357 327 3 18 45 68 100 109 110 165 235 285 234 296 305 306 53 272 267 237 224 237 136 131 147 92 358 299 240 148 137 263 288 287 281 285 298 358 175 107 6 316 345 345 281 63 341 294 301 312 278 273 279 284 301 347 169 274 332 339 342 343 336 329 327 326 322 316 311 309 308
81 144 336 350 0 111 68 60 345 25 67 125 6 68 20 77 112 9 5 13 8 56 32 41 122 63 179 211 233 195 287 248 203 330 241 258 260 225 210 71 68 114 104 358 304 282 79 66 322 304 289 273 286 333 41 339 1 355 335 48 16 336 328 220 249 308 312 287 304 296 282 300 352 254 320 331 335 339 339 334 328 325 321 316 313 313 315 315
114 169 2 10 11 165 86 94 131 66 87 127 68 33 349 81 94 34 45 3 355 105 68 20 238 352 210 172 110 210 304 10 281 322 75 176 256 263 241 66 52 77 98 147 312 314 299 1 0 330 325 327 331 338 324 322 353 338 304 349 4 344 341 287 262 356 309 294 328 318 290 299 323 325 325 328 334 337 331 327 325 319 315 316 316 319 321 323
75 96 323 14 36 67 102 146 139 129 148 108 80 34 5 57 45 20 120 51 5 150 117 347 288 24 56 60 34 345 356 33 313 336 36 233 263 322 15 126 168 300 252 203 118 57 274 237 65 352 321 321 322 321 321 325 334 327 316 331 353 14 2 344 341 354 307 306 321 306 291 303 318 324 325 328 335 330 323 324 321 313 315 319 321 324 328 332
79 60 315 357 28 52 68 89 94 110 148 125 85 18 53 78 316 299 117 77 34 128 66 13 321 24 31 32 24 334 328 18 352 352 22 268 267 295 326 172 183 264 288 73 71 82 98 241 217 190 216 265 285 289 300 311 312 313 318 326 348 29 16 12 10 326 304 306 303 297 303 309 317 324 325 330 333 325 323 325 319 316 323 324 324 329 336 338
94 94 87 7 14 38 36 19 46 84 143 132 108 77 97 83 327 323 101 101 121 89 58 40 34 41 19 21 31 312 298 346 7 346 232 254 263 287 298 215 179 306 7 73 61 85 77 312 253 204 225 248 268 280 291 302 297 299 313 327 353 4 4 17 348 301 310 313 304 314 318 314 315 322 326 329 330 327 325 323 320 323 329 327 329 336 339 339
74 138 172 112 92 77 49 37 74 82 69 84 107 107 92 65 38 71 204 357 27 32 72 43 17 21 313 337 49 316 317 348 343 290 299 307 297 323 331 299 178 343 28 55 6 93 112 265 252 248 281 273 267 277 286 289 284 297 320 343 350 343 344 343 305 294 312 310 303 314 318 314 314 322 328 329 329 327 322 318 322 328 329 329 336 342 341 340
82 114 8 23 89 130 107 77 105 86 60 61 82 77 110 108 90 152 262 11 9 352 39 54 334 329 300 248 117 134 307 346 322 291 238 307 304 334 345 319 333 5 58 68 355 102 134 267 265 299 299 292 282 274 275 296 308 317 353 41 338 335 324 311 293 290 301 299 300 310 313 310 313 321 325 325 324 321 316 318 329 332 330 334 343 346 343 341
146 146 142 67 74 76 40 39 82 83 52 43 72 75 117 128 140 189 281 63 58 337 21 56 289 302 302 162 133 179 239 205 243 264 200 128 314 260 213 251 258 341 22 66 337 1 49 304 306 31 316 301 299 292 306 326 320 317 329 343 342 341 332 324 315 309 311 310 310 314 311 306 312 323 321 319 321 322 323 330 335 332 332 341 348 348 345 341
106 126 137 112 72 1 9 24 65 89 49 14 92 151 137 150 169 152 94 73 160 186 341 273 255 285 12 108 170 259 262 215 223 238 200 184 248 223 226 238 200 319 349 28 340 357 30 318 328 33 343 304 316 339 332 322 313 309 327 336 341 340 330 320 318 322 324 320 319 321 317 313 326 328 321 321 329 330 332 336 334 331 339 351 352 348 343 343
100 94 112 104 80 356 5 18 31 78 84 351 109 154 151 189 184 126 94 125 193 154 196 203 199 198 66 355 258 266 269 232 220 226 199 183 208 209 245 236 159 165 298 81 13 358 78 353 327 9 332 303 319 335 321 312 319 332 309 260 314 326 319 314 322 328 326 322 323 328 328 324 326 326 325 328 332 335 339 337 331 334 349 357 352 344 340 345